Weather History for Toronto, ON

Change the Weather History Date:

Wednesday, March 27, 2013

  Actual Average Record
Temperature  
Mean Temperature 40 °F -  
Max Temperature 46 °F 49 °F 59 °F (1997)
Min Temperature 35 °F 35 °F 17 °F (2011)
Degree Days  
Heating Degree Days 24    
Moisture  
Dew Point 29 °F    
Average Humidity 66    
Maximum Humidity 87    
Minimum Humidity 33    
Precipitation  
Precipitation 0.01 in 0.08 in - ()
Sea Level Pressure  
Sea Level Pressure 30.02 in    
Wind  
Wind Speed 11 mph ()    
Max Wind Speed 22 mph    
Max Gust Speed 29 mph    
Visibility 9.1 miles    
Events Rain    
Averages and records for this station are not official NWS values.
T = Trace of Precipitation, MM = Missing Value Source: Averaged Metar Reports

Daily Weather History Graph

Daily Weather History Graph

Search for Another Location

Airport:

Trip Planner

Search our weather history database for the weather conditions in past years. The results will help you decide how hot, cold, wet, or windy it might be!

Date:

Astronomy

Mar. 27, 2013 Rise Set
Actual Time 7:07 AM EDT 7:38 PM EDT
Civil Twilight 6:39 AM EDT 8:07 PM EDT
Nautical Twilight 6:05 AM EDT 8:41 PM EDT
Astronomical Twilight 5:30 AM EDT 9:16 PM EDT
Moon 8:23 PM EDT (3/27) 6:56 AM EDT (3/27)
Length of Visible Light 13h 28m
Length of Day
12h 30m
Full, 100% of the Moon is Illuminated
Mar 27
Full
Apr 3
Last Quarter
Apr 10
New
Apr 18
First Quarter
Apr 25
Full

Hourly Weather History & Observations

Time (EDT) Temp. Windchill Dew Point Humidity Pressure Visibility Wind Dir Wind Speed Gust Speed Precip Events Conditions
12:00 AM 35.6 °F 28.6 °F 24.8 °F 65% 29.96 in 9.0 mi WNW 9.2 mph - N/A   Unknown
1:00 AM 35.6 °F 29.2 °F 24.8 °F 65% 29.96 in - West 8.1 mph - N/A   Overcast
2:00 AM 37 °F - 25 °F 51% 29.96 in 10 mi WNW 8.1 mph - -   Overcast
2:00 AM 37.4 °F 32.1 °F 24.8 °F 60% 29.96 in 9.0 mi WNW 6.9 mph - N/A   Overcast
3:00 AM 37.4 °F 30.8 °F 24.8 °F 60% 29.94 in 9.0 mi WNW 9.2 mph - N/A   Overcast
4:00 AM 37.4 °F 29.3 °F 26.6 °F 65% 29.94 in - WNW 12.7 mph - N/A   Overcast
5:00 AM 37.4 °F 29.3 °F 28.4 °F 70% 29.94 in 9.0 mi WNW 12.7 mph - N/A   Overcast
7:00 AM 35.6 °F 28.0 °F 28.4 °F 75% 29.96 in 9.0 mi WNW 10.4 mph - N/A   Overcast
8:00 AM 36 °F - 28 °F 64% 29.99 in 10 mi WNW 10.4 mph - -  
8:00 AM 35.6 °F 28.0 °F 28.4 °F 75% 29.99 in 9.0 mi WNW 10.4 mph - N/A   Partly Cloudy
9:00 AM 37.4 °F 28.5 °F 28.4 °F 70% 30.00 in 9.0 mi WNW 15.0 mph - N/A   Unknown
10:00 AM 41.0 °F 34.3 °F 28.4 °F 61% 30.00 in 9.0 mi WNW 11.5 mph 19.6 mph N/A   Mostly Cloudy
11:00 AM 42.8 °F 36.2 °F 28.4 °F 57% 30.01 in 9.0 mi WNW 12.7 mph 18.4 mph N/A   Overcast
1:00 PM 44.6 °F 39.7 °F 24.8 °F 46% 30.01 in 9.0 mi WNW 9.2 mph 20.7 mph N/A   Mostly Cloudy
1:42 PM 44.6 °F 36.4 °F 26.6 °F 49% 30.01 in 9.0 mi West 20.7 mph - N/A   Overcast
2:00 PM 45 °F - 25 °F 33% 30.01 in 10 mi WNW 16.1 mph - -   Overcast
2:00 PM 44.6 °F 37.4 °F 24.8 °F 46% 30.01 in 9.0 mi WNW 16.1 mph 21.9 mph N/A   Overcast
2:20 PM 42.8 °F 36.2 °F 30.2 °F 61% 30.02 in 9.0 mi WNW 12.7 mph 25.3 mph N/A Rain Light Rain
2:22 PM 42.8 °F 37.5 °F 30.2 °F 61% 30.01 in 9.0 mi WNW 9.2 mph 23.0 mph N/A   Overcast
2:24 PM 42.8 °F 37.5 °F 30.2 °F 61% 30.01 in 9.0 mi NW 9.2 mph 18.4 mph N/A Rain Light Rain
2:25 PM 42.8 °F 36.2 °F 30.2 °F 61% 30.01 in 9.0 mi WNW 12.7 mph - N/A   Overcast
2:58 PM 42.8 °F 34.5 °F 32.0 °F 66% 30.01 in 9.0 mi West 18.4 mph 27.6 mph N/A Rain Light Rain
3:00 PM 42.8 °F 35.4 °F 32.0 °F 66% 30.01 in 9.0 mi West 15.0 mph 25.3 mph N/A   Overcast
3:01 PM 42.8 °F 35.8 °F 32.0 °F 66% 30.01 in 9.0 mi West 13.8 mph 24.2 mph N/A Rain Light Rain
3:05 PM 42.8 °F 35.8 °F 30.2 °F 61% 30.01 in 9.0 mi WNW 13.8 mph 20.7 mph N/A   Overcast
3:08 PM 42.8 °F 34.0 °F 28.4 °F 57% 30.01 in 9.0 mi West 20.7 mph 27.6 mph N/A Rain Light Rain
3:10 PM 42.8 °F 33.8 °F 28.4 °F 57% 30.01 in 9.0 mi WNW 21.9 mph 28.8 mph N/A   Overcast
3:57 PM 42.8 °F 34.8 °F 28.4 °F 57% 30.01 in 9.0 mi WNW 17.3 mph 27.6 mph N/A Rain Light Rain
4:00 PM 42.8 °F 34.8 °F 26.6 °F 53% 30.01 in 9.0 mi WNW 17.3 mph - N/A Rain Light Rain
4:01 PM 42.8 °F 36.2 °F 28.4 °F 57% 30.01 in 9.0 mi WNW 12.7 mph 23.0 mph N/A   Overcast
4:08 PM 42.8 °F 35.1 °F 28.4 °F 57% 30.01 in 9.0 mi WNW 16.1 mph 23.0 mph N/A Rain Light Rain
4:13 PM 42.8 °F 34.8 °F 28.4 °F 57% 30.01 in 9.0 mi WNW 17.3 mph - N/A   Overcast
5:00 PM 44.6 °F 36.6 °F 28.4 °F 53% 30.02 in 9.0 mi WNW 19.6 mph 27.6 mph N/A   Overcast
6:00 PM 41.0 °F 32.5 °F 28.4 °F 61% 30.03 in 9.0 mi West 17.3 mph 23.0 mph N/A   Unknown
7:00 PM 41.0 °F 33.9 °F 32.0 °F 70% 30.05 in 9.0 mi NNW 12.7 mph 20.7 mph N/A   Unknown
7:30 PM 39.2 °F 35.0 °F 32.0 °F 75% 30.06 in 9.0 mi NW 5.8 mph - N/A Rain Light Rain
7:33 PM 39.2 °F 34.2 °F 32.0 °F 75% 30.06 in 9.0 mi NW 6.9 mph - N/A   Overcast
7:35 PM 39.2 °F 33.0 °F 32.0 °F 75% 30.06 in 9.0 mi NW 9.2 mph - N/A Rain Light Rain
7:37 PM 39.2 °F 33.0 °F 32.0 °F 75% 30.06 in 9.0 mi NNW 9.2 mph - N/A   Overcast
8:00 PM 37 °F - 33 °F 80% 30.07 in - NW 9.2 mph - -   Overcast
8:00 PM 37.4 °F 30.8 °F 33.8 °F 87% 30.07 in - NW 9.2 mph - N/A   Overcast
8:05 PM 37.4 °F 31.4 °F 33.8 °F 87% 30.07 in 9.0 mi NNW 8.1 mph - N/A Rain Light Rain
8:18 PM 37.4 °F 28.9 °F 32.0 °F 81% 30.07 in 9.0 mi North 13.8 mph - N/A Rain Light Rain
8:40 PM 35.6 °F 27.5 °F 32.0 °F 87% 30.08 in 9.0 mi NNW 11.5 mph - N/A Rain Light Rain
8:50 PM 35.6 °F 29.9 °F 30.2 °F 81% 30.08 in 9.0 mi NNW 6.9 mph - N/A Rain Light Rain
9:00 PM 35.6 °F 27.1 °F 30.2 °F 81% 30.08 in 9.0 mi NNW 12.7 mph - N/A Rain Light Rain
9:10 PM 35.6 °F 29.2 °F 30.2 °F 81% 30.09 in 9.0 mi NW 8.1 mph 17.3 mph N/A   Overcast
10:00 PM 35.6 °F 27.1 °F 28.4 °F 75% 30.09 in 9.0 mi NNW 12.7 mph - N/A   Mostly Cloudy
10:55 PM 35.6 °F 28.6 °F 28.4 °F 75% 30.09 in 9.0 mi NW 9.2 mph - N/A Rain Light Rain
11:00 PM 35.6 °F 28.0 °F 30.2 °F 81% 30.09 in 9.0 mi NW 10.4 mph - N/A Rain Light Rain
11:04 PM 35.6 °F 27.1 °F 30.2 °F 81% 30.09 in 9.0 mi NW 12.7 mph - N/A   Overcast